Regional Weather Roundup
Issued by NWS

Home | Current Version | Previous Version | Graphics & Text | Print | Product List | Glossary Off
Versions: 1 2 3 4 5 6 7 8 9 10 11 12 13 14 15 16 17 18 19 20 21 22 23 24 25 26 27 28 29 30 31 32 33 34 35 36 37 38 39 40 41 42 43 44 45 46 47 48 49 50

000
ASUS43 KMKX 271800
RWRWI

WISCONSIN REGIONAL WEATHER ROUNDUP
NATIONAL WEATHER SERVICE MILWAUKEE/SULLIVAN WI
100 PM CDT WED AUG 27 2014

NOTE: "FAIR" INDICATES FEW OR NO CLOUDS BELOW 12,000 FEET WITH NO
SIGNIFICANT WEATHER AND/OR OBSTRUCTIONS TO VISIBILITY.

WIZ001-002-006>008-014>016-023>028-271900-
NORTHWEST WISCONSIN

CITY           SKY/WX    TMP DP  RH WIND       PRES   REMARKS
SUPERIOR ARPT  PTSUNNY   67  52  58 NW5       30.22S
ASHLAND        FAIR      68  49  50 VRB7      30.23S
6HR MIN TEMP:  50; 6HR MAX TEMP:  68;

HAYWARD        CLOUDY    67  47  48 CALM      30.24S
6HR MIN TEMP:  51; 6HR MAX TEMP:  67;

SIREN          PTSUNNY   67  51  56 CALM      30.23F
RICE LAKE      FAIR      68  49  50 W3        30.24F
6HR MIN TEMP:  55; 6HR MAX TEMP:  69; 6HR PCP:  0.01;

LADYSMITH      FAIR      67  50  54 CALM      30.25F
EAU CLAIRE     FAIR      70  53  54 VRB3      30.20F
6HR MIN TEMP:  58; 6HR MAX TEMP:  71;

MENOMONIE      MOCLDY    71  53  53 SE6       30.23S
NEW RICHMOND   FAIR      69  52  55 CALM      30.23F
OSCEOLA        FAIR      69  53  55 CALM      30.25F
$$

WIZ003>005-009-010-017-018-271900-
NORTH CENTRAL WISCONSIN

CITY           SKY/WX    TMP DP  RH WIND       PRES   REMARKS
WOODRUFF       MOSUNNY   64  49  57 NW7       30.22S
RHINELANDER    MOSUNNY   66  48  52 W7        30.23R
6HR MIN TEMP:  54; 6HR MAX TEMP:  66;

EAGLE RIVER    PTSUNNY   63  47  55 NW7       30.21F
LAND O LAKES   FAIR      65  47  51 W5        30.22S
PHILLIPS       FAIR      63  49  59 W3        30.24R
TOMAHAWK       MOSUNNY   64  49  58 NW7       30.24R
MEDFORD        FAIR      66  51  57 W7        30.23F
MERRILL        PTSUNNY   66  53  63 NW6       30.22S
$$

WIZ029-030-035-036-043>047-271900-
CENTRAL WISCONSIN

CITY           SKY/WX    TMP DP  RH WIND       PRES   REMARKS
WAUSAU         MOSUNNY   70  54  56 NW9       30.19F
6HR MIN TEMP:  58; 6HR MAX TEMP:  71;

MOSINEE        NOT AVBL
MARSHFIELD     FAIR      72  56  57 NW8       30.20F
6HR MIN TEMP:  56; 6HR MAX TEMP:  73;

STEVENS POINT  FAIR      69  53  57 SW6       30.21F
WAUPACA        FAIR      73  53  49 N8        30.20F
WAUTOMA        NOT AVBL
WISC RAPIDS    FAIR      73  54  51 VRB6      30.21F
6HR MIN TEMP:  58; 6HR MAX TEMP:  73;

CAMP DOUGLAS   NOT AVBL
$$

WIZ011>013-019>022-031-037>040-048>050-271900-
NORTHEAST WISCONSIN

CITY           SKY/WX    TMP DP  RH WIND       PRES   REMARKS
ANTIGO         CLOUDY    64  53  67 W6        30.22S
STURGEON BAY   PTSUNNY   66  52  59 N6        30.20R
6HR MIN TEMP:  57; 6HR MAX TEMP:  66;

GREEN BAY      PTSUNNY   70  56  61 NW5       30.19S
6HR MIN TEMP:  58; 6HR MAX TEMP:  72;

MANITOWOC      NOT AVBL
APPLETON       PTSUNNY   70  54  56 NW7       30.19S
CLINTONVILLE   MOSUNNY   68  52  56 NW6       30.20S
OSHKOSH        MOSUNNY   72  56  57 N3        30.18F
6HR MIN TEMP:  63; 6HR MAX TEMP:  72;

$$

WIZ032>034-041-042-053>061-271900-
SOUTHWEST WISCONSIN

CITY           SKY/WX    TMP DP  RH WIND       PRES   REMARKS
LA CROSSE      FAIR      75  56  51 VRB3      30.18F
6HR MIN TEMP:  64; 6HR MAX TEMP:  76;

SPARTA         FAIR      74  54  48 NW6       30.20F
VIROQUA        FAIR      71  56  58 E3        30.21F
BOSCOBEL       FAIR      77  57  50 VRB3      30.19F
6HR MIN TEMP:  61; 6HR MAX TEMP:  78;

PRAIRIE DU CHI FAIR      73  54  50 CALM      30.17F
PLATTEVILLE    FAIR      75  56  52 CALM      30.20F
$$

WIZ056-057-062-063-064-067-068-271900-
SOUTH CENTRAL WISCONSIN

CITY           SKY/WX    TMP DP  RH WIND       PRES   REMARKS
BARABOO/DELLS  FAIR      72  53  51 E5        30.20F
LONE ROCK      NOT AVBL
WATERTOWN      MOSUNNY   72  60  66 N7        30.17F
MADISON        PTSUNNY   76  58  53 N9        30.18F
6HR MIN TEMP:  60; 6HR MAX TEMP:  76;

MIDDLETON      FAIR      75  55  50 CALM      30.19F
MONROE         FAIR      73  57  56 NE3       30.18F
JANESVILLE     SUNNY     79  61  53 CALM      30.16F HX  80
$$

WIZ051-052-058>065-066-070>072-271900-
SOUTHEAST WISCONSIN

CITY           SKY/WX    TMP DP  RH WIND       PRES   REMARKS
MILWAUKEE      MOSUNNY   72  63  73 E13       30.17F
6HR MIN TEMP:  64; 6HR MAX TEMP:  73;

WAUKESHA       NOT AVBL
MILWAUKEE/TIMM MOSUNNY   72  59  64 NE7       30.18F
RACINE         PTSUNNY   73  63  70 NE7       30.19S
6HR MIN TEMP:  63; 6HR MAX TEMP:  75;

BURLINGTON     MOSUNNY   73  57  55 N5        30.17S
KENOSHA        PTSUNNY   75  62  64 VRB3      30.17S
6HR MIN TEMP:  61; 6HR MAX TEMP:  75;

FOND DU LAC    SUNNY     73  54  51 N5        30.18F
6HR MIN TEMP:  61; 6HR MAX TEMP:  73;

SHEBOYGAN      MOSUNNY   70  55  59 VRB3      30.18F
6HR MIN TEMP:  63; 6HR MAX TEMP:  72;

WEST BEND      PTSUNNY   70  55  60 CALM      30.18F
JUNEAU         MOSUNNY   71  58  62 CALM      30.19F
$$

LSZ147-162-271900-
LAKE SUPERIOR

STATION/POSITION TIME  TEMP    WIND        PRES    WAVE
                       AIR SEA DIR/SP/G            HT/PER
                 (UTC) (F)     (DEG/KT/KT) (MB)    (FT/S)
W MID LAKE BUOY  1650   56 56  250/  6/  8 1022.9F   0
DEVILS ISLAND    1700   61     240/  4/  6 1023.6S
PORT WING        1740   64      10/  2/  3 1023.7S
SAXON HARBOR     1700   63      30/  5/  7 1023.7
$$

LMZ867-665-643>646-271900-
LAKE MICHIGAN

STATION/POSITION TIME  TEMP    WIND        PRES    WAVE
                       AIR SEA DIR/SP/G            HT/PER
                 (UTC) (F)     (DEG/KT/KT) (MB)    (FT/S)
N MID LAKE BUOY  1650   61 66  330/  2/  4 1022.4F   1
NORTHPORT PIER   1700   64     330/  6/  8 1022.4S
SISTER BAY       1711   71     320/  6/  7   N/A
KEWAUNEE LAKESHO 1700   67     120/  5/  6 1021.2F
SHEBOYGAN LAKESH 1700   65 67   40/  5/  6 1022.7R
ATWATER BUOY     1700   68      20/ 10/ 12 1023.0R
MILWAUKEE LAKESH 1700   68      40/ 10/ 11   N/A
S MID LAKE BUOY  1650   67 70   60/  8/ 10 1021.6R   0
KENOSHA   LAKESH 1700   69      30/  8/  9 1021.3R
$$

TC  - TEMPERATURE IN CELSIUS
VSB - VISIBILITY IN STATUTE MILES
WCI - WIND CHILL INDEX
HX  - HEAT INDEX




USA.gov is the U.S. government's official web portal to all federal, state and local government web resources and services.